Boscombe Down, United Kingdom

8:49 AM BST on June 24, 2017 (GMT +0100)
Boscombe Down

Weather History for EGDM - October, 2012

Change the Weather History Date:

Sunday, October 28, 2012

  Actual Average Record
Temperature  
Mean Temperature 38 °F -  
Max Temperature 47 °F 48 °F 65 °F (2014)
Min Temperature 30 °F 38 °F 30 °F (2012)
Degree Days  
Heating Degree Days 26    
Moisture  
Dew Point 38 °F    
Average Humidity 90    
Maximum Humidity 93    
Minimum Humidity 81    
Precipitation  
Precipitation 0.04 in - - ()
Sea Level Pressure  
Sea Level Pressure 29.99 in    
Wind  
Wind Speed 6 mph ()    
Max Wind Speed 13 mph    
Max Gust Speed -    
Visibility 7.1 miles    
Events Rain    
Averages and records for this station are not official NWS values.
T = Trace of Precipitation, MM = Missing Value Source: Averaged Metar Reports

Daily Weather History Graph

Daily Weather History Graph

Search for Another Location

Airport or City:

Trip Planner

Search our weather history database for the weather conditions in past years. The results will help you decide how hot, cold, wet, or windy it might be!

Date:

Astronomy

Oct. 28, 2012 Rise Set
Actual Time 6:53 AM GMT 4:47 PM GMT
Civil Twilight 6:18 AM GMT 5:21 PM GMT
Nautical Twilight 5:39 AM GMT 6:00 PM GMT
Astronomical Twilight 5:01 AM GMT 6:39 PM GMT
Moon 3:59 PM GMT (10/28) 5:27 AM GMT (10/28)
Length of Visible Light 11h 03m
Length of Day
9h 54m
Waxing Gibbous, 98% of the Moon is Illuminated
Oct 28
Waxing Gibbous
Oct 29
Full
Nov 7
Last Quarter
Nov 13
New
Nov 20
First Quarter

Hourly Weather History & Observations

Time (GMT) Temp. Windchill Dew Point Humidity Pressure Visibility Wind Dir Wind Speed Gust Speed Precip Events Conditions
12:50 AM 34 °F - 32 °F 89% 30.20 in 16 mi WNW 4.6 mph - -   Mostly Cloudy
12:50 AM 33.8 °F 29.6 °F 32.0 °F 93% 30.15 in 6.2 mi WNW 4.6 mph - N/A   Mostly Cloudy
1:50 AM 33.8 °F 28.6 °F 30.2 °F 87% 30.15 in 6.2 mi WSW 5.8 mph - N/A   Mostly Cloudy
1:50 AM 33.8 °F 29.6 °F 32.0 °F 93% 30.12 in 6.2 mi West 4.6 mph - N/A   Overcast
2:50 AM 32 °F - 29 °F 86% 30.14 in 13 mi NW 3.5 mph - -   Mostly Cloudy
2:50 AM 32.0 °F 28.7 °F 30.2 °F 93% 30.09 in 6.2 mi NW 3.5 mph - N/A   Mostly Cloudy
3:50 AM 32.0 °F 28.7 °F 28.4 °F 87% 30.09 in 6.2 mi WSW 3.5 mph - N/A   Mostly Cloudy
4:50 AM 33.8 °F 29.6 °F 30.2 °F 87% 30.06 in 6.2 mi West 4.6 mph - N/A   Mostly Cloudy
5:50 AM 35 °F - 32 °F 83% 30.09 in 15 mi West 4.6 mph - -   Overcast
5:50 AM 35.6 °F 31.7 °F 32.0 °F 87% 30.06 in 6.2 mi West 4.6 mph - N/A   Overcast
6:50 AM 33.8 °F 25.8 °F 32.0 °F 93% 30.04 in 6.2 mi SSW 10.4 mph - N/A   Mostly Cloudy
7:50 AM 35.6 °F 29.2 °F 33.8 °F 93% 30.04 in 6.2 mi SW 8.1 mph - N/A Rain Light Rain
8:50 AM 39 °F - 37 °F 91% 30.05 in 12 mi SSW 6.9 mph - - Rain Light Rain
8:50 AM 39.2 °F 34.2 °F 37.4 °F 93% 30.01 in 6.2 mi SSW 6.9 mph - N/A   Mostly Cloudy
9:39 AM 41.0 °F 37.1 °F 39.2 °F 93% 30.01 in 6.2 mi SW 5.8 mph - N/A Rain Light Rain
9:50 AM 41.0 °F 37.1 °F 39.2 °F 93% 30.01 in 6.2 mi WSW 5.8 mph - N/A Rain Light Rain
10:50 AM 42.8 °F 37.5 °F 41.0 °F 93% 30.01 in 6.2 mi SSW 9.2 mph - N/A Rain Light Rain
11:50 AM 44 °F - 42 °F 92% 30.00 in 12 mi SW 9.2 mph - - Rain Light Rain
11:50 AM 44.6 °F 39.7 °F 42.8 °F 93% 29.98 in 6.2 mi SW 9.2 mph - N/A Rain Light Rain
12:21 PM 44.6 °F 39.2 °F 42.8 °F 93% 29.95 in 6.2 mi WSW 10.4 mph - N/A   Mostly Cloudy
12:50 PM 46.4 °F 41.9 °F 44.6 °F 93% 29.95 in 6.2 mi WSW 9.2 mph - N/A   Mostly Cloudy
1:50 PM 46.4 °F 41.9 °F 44.6 °F 93% 29.92 in 1.9 mi WSW 9.2 mph - N/A Rain Light Rain
2:50 PM 46.4 °F 40.7 °F 44.6 °F 93% 29.92 in 3.7 mi West 12.7 mph - N/A Rain Light Rain
3:13 PM 46.4 °F 41.5 °F 44.6 °F 93% 29.92 in 6.2 mi West 10.4 mph - N/A Rain Light Rain
3:50 PM 46.4 °F 41.5 °F 42.8 °F 87% 29.89 in 6.2 mi West 10.4 mph - N/A Rain Light Rain
4:50 PM 46.4 °F 41.5 °F 42.8 °F 87% 29.89 in 6.2 mi WSW 10.4 mph - N/A Rain Rain
5:50 PM 46 °F - 43 °F 86% 29.91 in 7 mi SW 12.7 mph - - Rain Light Rain
5:50 PM 46.4 °F 40.7 °F 42.8 °F 87% 29.89 in 6.2 mi SW 12.7 mph - N/A Rain Light Rain
6:50 PM 44.6 °F 39.2 °F 42.8 °F 93% 29.89 in 6.2 mi WSW 10.4 mph - N/A   Mostly Cloudy
7:50 PM 44.6 °F 39.2 °F 42.8 °F 93% 29.86 in 6.2 mi WSW 10.4 mph - N/A Rain Light Rain Showers
8:50 PM 45 °F - 42 °F 86% 29.89 in 31 mi SW 11.5 mph - - Rain Rain
8:50 PM 44.6 °F 38.8 °F 42.8 °F 93% 29.86 in 6.2 mi SW 11.5 mph - N/A   Overcast
9:50 PM 44.6 °F 39.7 °F 42.8 °F 93% 29.86 in 6.2 mi SW 9.2 mph - N/A   Overcast
10:50 PM 46.4 °F 41.5 °F 41.0 °F 81% 29.86 in 6.2 mi SW 10.4 mph - N/A   Overcast